Location: Songkhla
(7.2000°N, 100.6000°E)
Time: 03:42:05
(UTC+07:00)

JAISAT 1 - All Passes

Search period start: 21 January 2021 00:00
Search period end: 31 January 2021 00:00
Orbit: 510 x 542 km, 97.6° (Epoch: 20 January)

Date Brightness Start Highest point End Pass type
(mag) Time Alt. Az. Time Alt. Az. Time Alt. Az.
21 Jan - 03:11:15 10° NNE 03:14:57 60° ESE 03:18:42 10° S night (unlit)
21 Jan - 15:09:11 10° SSE 15:13:01 76° ENE 15:16:47 10° N daylight
22 Jan - 02:59:49 10° NNE 03:03:20 38° E 03:06:52 10° S night (unlit)
22 Jan - 14:57:43 10° SSE 15:01:24 47° ENE 15:05:03 10° N daylight
23 Jan - 02:48:35 10° NE 02:51:43 25° E 02:54:52 10° SSE night (unlit)
23 Jan - 14:46:25 10° SE 14:49:48 30° ENE 14:53:08 10° NNE daylight
24 Jan - 02:37:38 10° ENE 02:40:06 17° E 02:42:35 10° SE night (unlit)
24 Jan - 04:11:57 10° NW 04:14:05 15° WNW 04:16:13 10° WSW night (unlit)
24 Jan - 14:35:20 10° SE 14:38:12 20° ENE 14:41:01 10° NNE daylight
24 Jan - 16:10:46 10° WSW 16:12:12 12° W 16:13:37 10° WNW daylight
25 Jan - 02:27:24 10° E 02:28:28 11° E 02:29:33 10° ESE night (unlit)
25 Jan - 03:59:33 10° NNW 04:02:29 22° WNW 04:05:27 10° SW night (unlit)
25 Jan - 14:24:40 10° ESE 14:26:35 14° ENE 14:28:30 10° NE daylight
25 Jan - 15:57:58 10° SW 16:00:35 18° W 16:03:10 10° WNW daylight
26 Jan - 03:47:28 10° NNW 03:50:53 33° WNW 03:54:20 10° SW night (unlit)
26 Jan - 15:45:44 10° SSW 15:48:57 26° W 15:52:09 10° NW daylight
27 Jan - 03:35:35 10° N 03:39:16 51° WNW 03:42:59 10° SSW night (unlit)
27 Jan - 15:33:44 10° S 15:37:19 40° W 15:40:53 10° NNW daylight
28 Jan - 03:23:51 10° N 03:27:39 82° W 03:31:29 10° SSW night (unlit)
28 Jan - 15:21:57 10° S 15:25:42 65° W 15:29:25 10° NNW daylight
29 Jan - 03:12:15 10° NNE 03:16:01 62° E 03:19:50 10° S night (unlit)
29 Jan - 15:10:18 10° SSE 15:14:04 79° ENE 15:17:48 10° N daylight
30 Jan - 03:00:50 10° NNE 03:04:24 39° E 03:08:01 10° S night (unlit)
30 Jan - 14:58:48 10° SSE 15:02:27 48° ENE 15:06:04 10° N daylight
